Location: Pedimozza
(42.0500°N, 9.3500°E)
Time: 15:22:37
(UTC+00:00)

Cosmos 2369 - Pass Details

Date: 19 August 2019
Orbit: 841 x 854 km, 71.0° (Epoch: 16 September)

Event Time Altitude Azimuth Distance (km) Brightness Sun altitude
Rises 21:42:23 0° 331° (NNW) 3,404 8.0 -30.3°
Reaches altitude 10° 21:44:52 10° 327° (NNW) 2,466 7.0 -30.6°
Enters shadow 21:49:40 52° 280° (W) 1,045 4.2 -31.0°
